Find Starlink 32147

NORAD ID: 60152 Int'l Des: 2024-120 Owner: SPXS Country: US Constellation: starlink operational
LEOCIRCULAR

リアルタイム位置

3D地球を読み込み中...

Starlink 32147について

説明を読み込み中...

次回通過

Passes for default location (London). Set your location on the main map for personalized predictions.

高度履歴

Loading altitude history...

軌道要素

1 60152U 24120T 26127.22143124 -.00002103 00000-0 -58910-4 0 9995
2 60152 53.1611 48.3335 0001239 101.1951 258.9189 15.30188132105338
Epoch: May 7, 2026 • Age: 7 hours

現在のステータス

高度 479.6 km
速度 7.63 km/s
衛星直下点 46.56°N, 55.62°E
打ち上げ日 Jun 27, 2024
運用期間 1.8 years
タイプ internet

技術仕様

分類 Payload
質量 730.00 kg
乾燥質量 700.00 kg
総質量 730.00 kg
長さ 0.30 m
直径 4.10 m
スパン 29.00 m
形状 Box + pan
製造者 SPXS
バスタイプ Starlink V2M
フェーズステータス In Orbit
所有者/国 SPXS/US

Most Searched